[[{"header":{"parameterUnit":"m.s-1","parameterCategory":1,"la1":30.2991,"la2":30.254,"lo1":-89.0895,"lo2":-89.0444,"dy":0.0017,"dx":0.0017,"nx":28,"ny":28,"refTime":"2023-10-11T09:00:00:Z","depth":0,"parameterNumber":2,"parameterNumberName":"U-component_of_WINDS"},"data":[0,0,0,0,0,0,0,0,0,0,0,0,0,0,0,0,0,0,0,0,0,0,0,0,0,0,0,0,0,0,0,0,0,0,0,0,0,0,0,0,0,0,0,0,0,0,0,0,0,0,0,0,0,0,0,0,0,0,-3.3666,-3.3667,0,-3.3713,-3.3714,-3.3714,-3.3655,-3.3653,-3.3651,-3.3649,-3.3694,-3.3697,-3.37,0,0,0,0,0,0,0,0,0,0,0,0,0,-3.3521,-3.3524,-3.3666,-3.3667,-3.3667,-3.3713,-3.3714,-3.3714,-3.3655,-3.3653,-3.365,-3.3648,-3.3693,-3.3697,-3.3701,0,0,0,0,0,0,0,0,0,0,0,0,0,-3.3578,-3.3525,-3.3666,-3.3643,-3.3642,-3.3713,-3.3714,-3.3715,-3.3656,-3.3653,-3.3649,-3.3646,-3.3692,-3.3696,-3.3701,-3.3796,0,0,-3.3716,-3.3718,0,0,0,0,0,0,0,0,-3.3575,-3.3583,-3.3646,-3.3645,-3.3643,-3.3675,-3.3679,-3.3742,-3.3657,-3.365,-3.3648,-3.3645,-3.369,-3.3695,-3.3711,-3.3798,-3.38,-3.3716,-3.3719,-3.3721,-3.3723,0,0,0,0,0,0,0,-3.3571,-3.3581,-3.3685,-3.3647,-3.3645,-3.363,-3.3634,-3.3691,-3.3688,-3.3651,-3.3647,-3.3653,-3.3689,-3.3706,-3.3711,-3.3801,-3.3716,-3.3721,-3.3724,-3.3725,-3.3966,-3.3969,0,0,0,0,0,0,-3.357,-3.3578,-3.3683,-3.3686,-3.36,-3.3635,-3.364,-3.3668,-3.3687,-3.3687,-3.3656,-3.365,-3.37,-3.3706,-3.3713,-3.3824,-3.3721,-3.3726,-3.3729,-3.3963,-3.3967,-3.3971,0,0,0,0,0,0,-3.3567,-3.358,-3.3681,-3.3631,-3.3643,-3.3641,-3.3673,-3.3671,-3.3688,-3.3691,-3.369,-3.3675,-3.3697,-3.3706,-3.3775,-3.3824,-3.3728,-3.3732,-3.3959,-3.3964,-3.3969,-3.4047,0,0,0,0,0,0,-3.3563,-3.3579,-3.3616,-3.3632,-3.3646,-3.3745,-3.3676,-3.3674,-3.3697,-3.369,-3.3708,-3.3708,-3.3695,-3.3769,-3.378,-3.3829,-3.3736,-3.3954,-3.3961,-3.3967,-3.404,-3.4055,-3.4067,0,0,0,0,0,-3.3558,-3.3636,-3.3618,-3.3631,-3.3692,-3.3747,-3.3755,-3.374,-3.3701,-3.3737,-3.3739,-3.3707,-3.3817,-3.3776,-3.3789,-3.384,-3.3951,-3.3959,-3.3967,-3.4034,-3.4052,-3.4067,0,0,0,0,0,0,-3.3625,-3.3638,-3.3618,-3.3704,-3.3725,-3.3737,-3.3783,-3.3759,-3.3791,-3.3783,-3.3761,-3.3766,-3.384,-3.3847,-3.3801,-3.3932,-3.3878,-3.3888,-3.3925,-3.3941,-3.3954,-3.3951,-3.374,0,0,0,0,0,-3.365,-3.3696,-3.3704,-3.3778,-3.379,-3.3785,-3.3808,-3.3795,-3.3816,-3.3824,-3.3831,-3.3851,-3.389,-3.3916,-3.3952,-3.4041,-3.4043,-3.4083,-3.4096,-3.4107,-3.4116,-3.4162,-3.4179,-3.3996,-3.3996,-3.3996,0,0,-3.3702,-3.3714,-3.3744,-3.3792,-3.3807,-3.3853,-3.3793,-3.3844,-3.3878,-3.3831,-3.3897,-3.3903,-3.3924,-3.4004,-3.4039,-3.4012,-3.4167,-3.4117,-3.4125,-3.4129,-3.4172,-3.4189,-3.4204,-3.4002,-3.4001,-3.4,0,0,-3.3819,-3.3834,-3.3897,-3.3913,-3.3937,-3.3932,-3.3948,-3.3964,-3.3966,-3.4032,-3.3998,-3.4037,-3.4105,-3.4121,-3.4138,-3.4261,-3.4232,-3.4273,-3.4342,-3.4387,-3.4401,-3.4414,-3.4456,-3.4472,-3.4282,-3.4283,-3.4283,0,-3.388,-3.3949,-3.3932,-3.3986,-3.4008,-3.3969,-3.4031,-3.4048,-3.4081,-3.4096,-3.4066,-3.415,-3.4161,-3.4243,-3.4273,-3.4289,-3.4304,-3.427,-3.4401,-3.4413,-3.4425,-3.4465,-3.4481,-3.4287,-3.4287,-3.4286,-3.4286,0,-3.4022,-3.407,-3.4118,-3.4153,-3.4179,-3.4238,-3.4228,-3.4257,-3.4241,-3.424,-3.4307,-3.432,-3.4357,-3.4376,-3.436,-3.4455,-3.4437,-3.4404,-3.4349,-3.4447,-3.4484,-3.45,-3.4294,-3.4292,-3.4291,-3.429,0,0,-3.4183,-3.4207,-3.4225,-3.4239,-3.4262,-3.4298,-3.4354,-3.4391,-3.4416,-3.444,-3.4485,-3.4544,-3.4513,-3.4532,-3.4518,-3.4558,-3.4653,-3.452,-3.452,-3.4543,-3.4756,-3.478,-3.4799,-3.4634,-3.4637,-3.4639,-3.4754,0,-3.4299,-3.4397,-3.4383,-3.4476,-3.452,-3.4483,-3.4531,-3.455,-3.455,-3.4586,-3.4585,-3.4627,-3.4584,-3.4595,-3.4633,-3.4633,-3.4695,-3.4625,-3.4675,-3.4677,-3.467,-3.4818,-3.4844,-3.4952,-3.4769,-3.4771,-3.4773,0,-3.4448,-3.4479,-3.4577,-3.4592,-3.4609,-3.4653,-3.4685,-3.4721,-3.474,-3.4738,-3.4759,-3.4738,-3.4792,-3.4736,-3.481,-3.4762,-3.4782,-3.4785,-3.4789,-3.4792,-3.473,-3.4825,-3.4986,-3.5002,-3.4796,-3.4794,-3.4793,0,-3.4554,-3.462,-3.4686,-3.47,-3.472,-3.4751,-3.476,-3.4777,-3.48,-3.4828,-3.4842,-3.4876,-3.4894,-3.492,-3.4908,-3.4869,-3.4983,-3.4927,-3.4981,-3.4981,-3.5006,-3.5004,-3.5172,-3.502,-3.502,-3.502,-3.5019,0,-3.4685,-3.4746,-3.4734,-3.4775,-3.4842,-3.4825,-3.4891,-3.4895,-3.491,-3.495,-3.492,-3.4958,-3.494,-3.4977,-3.4967,-3.5029,-3.5037,-3.5035,-3.5032,-3.5038,-3.5038,-3.5049,-3.5041,-3.5024,-3.5023,-3.5022,-3.5022,0,-3.4815,-3.4809,-3.4879,-3.4892,-3.4896,-3.4945,-3.4955,-3.4993,-3.499,-3.5041,-3.5052,-3.5049,-3.509,-3.508,-3.5125,-3.5118,-3.5195,-3.5183,-3.5189,-3.5186,-3.524,-3.5235,-3.542,-3.5443,-3.5278,-3.5279,-3.5281,0,-3.4898,-3.4944,-3.4962,-3.4987,-3.4999,-3.504,-3.5063,-3.5048,-3.5073,-3.5098,-3.5133,-3.5171,-3.5201,-3.5268,-3.5269,-3.5303,-3.529,-3.5353,-3.5295,-3.5299,-3.5289,-3.5287,-3.529,-3.5364,-3.5366,-3.5367,-3.5369,0,-3.5046,-3.5041,-3.5077,-3.5111,-3.514,-3.5166,-3.5189,-3.5211,-3.5197,-3.5227,-3.5269,-3.5292,-3.5338,-3.5376,-3.5407,-3.5415,-3.5389,-3.5387,-3.5401,-3.5407,-3.5408,-3.5406,-3.5219,-3.5382,-3.5381,-3.538,-3.5379,-3.5379,-3.5154,-3.5193,-3.5212,-3.5252,-3.5268,-3.529,-3.5325,-3.5328,-3.5363,-3.54,-3.5388,-3.5436,-3.5452,-3.5492,-3.5503,-3.5539,-3.5516,-3.5536,-3.5541,-3.5546,-3.5553,-3.5403,-3.5545,-3.5545,-3.5544,-3.5544,-3.5544,0,-3.53,-3.531,-3.5347,-3.5381,-3.5412,-3.5386,-3.541,-3.5437,-3.548,-3.5498,-3.5528,-3.5576,-3.5613,-3.5616,-3.565,-3.5678,-3.5667,-3.5688,-3.5685,-3.5687,-3.5573,-3.5556,-3.5696,-3.5696,-3.5696,-3.5696,-3.5696,-3.5696,-3.5379,-3.5443,-3.544,-3.5511,-3.552,-3.5568,-3.5583,-3.5603,-3.5617,-3.5672,-3.5703,-3.5705,-3.5717,-3.5752,-3.5784,-3.5784,-3.5797,-3.5822,-3.5817,-3.571,-3.5695,-3.568,-3.5665,-3.5825,-3.5825,-3.5928,-3.5929,-3.593]},{"header":{"parameterUnit":"m.s-1","parameterCategory":1,"la1":30.2991,"la2":30.254,"lo1":-89.0895,"lo2":-89.0444,"dy":0.0017,"dx":0.0017,"nx":28,"ny":28,"refTime":"2023-10-11T09:00:00:Z","depth":0,"parameterNumber":3,"parameterNumberName":"V-component_of_WINDS"},"data":[0,0,0,0,0,0,0,0,0,0,0,0,0,0,0,0,0,0,0,0,0,0,0,0,0,0,0,0,0,0,0,0,0,0,0,0,0,0,0,0,0,0,0,0,0,0,0,0,0,0,0,0,0,0,0,0,0,0,-2.7498,-2.7498,0,-2.75,-2.75,-2.75,-2.7464,-2.7463,-2.7462,-2.7461,-2.7462,-2.7463,-2.7464,0,0,0,0,0,0,0,0,0,0,0,0,0,-2.7463,-2.7463,-2.7498,-2.7498,-2.7498,-2.75,-2.75,-2.75,-2.7464,-2.7463,-2.7461,-2.746,-2.7462,-2.7463,-2.7464,0,0,0,0,0,0,0,0,0,0,0,0,0,-2.7473,-2.7464,-2.7498,-2.748,-2.7479,-2.75,-2.75,-2.75,-2.7464,-2.7463,-2.7461,-2.746,-2.7461,-2.7463,-2.7464,-2.7502,0,0,-2.7469,-2.7469,0,0,0,0,0,0,0,0,-2.7472,-2.7474,-2.7483,-2.7482,-2.748,-2.748,-2.7488,-2.75,-2.7464,-2.747,-2.7461,-2.7459,-2.7469,-2.747,-2.7473,-2.7502,-2.7502,-2.7469,-2.7469,-2.747,-2.747,0,0,0,0,0,0,0,-2.7471,-2.7474,-2.7499,-2.7483,-2.7481,-2.7472,-2.7472,-2.749,-2.7478,-2.7469,-2.7466,-2.7467,-2.7468,-2.7472,-2.7473,-2.7502,-2.7469,-2.747,-2.7471,-2.7471,-2.756,-2.7562,0,0,0,0,0,0,-2.7473,-2.7473,-2.7499,-2.7499,-2.7472,-2.7474,-2.7474,-2.7481,-2.7477,-2.7475,-2.7468,-2.7465,-2.747,-2.7472,-2.7473,-2.7516,-2.747,-2.7471,-2.7472,-2.7559,-2.7561,-2.7562,0,0,0,0,0,0,-2.7473,-2.7476,-2.7498,-2.7485,-2.7487,-2.7476,-2.7485,-2.7482,-2.7486,-2.7477,-2.7474,-2.7475,-2.7469,-2.7471,-2.7495,-2.7515,-2.7472,-2.7473,-2.7557,-2.7559,-2.7562,-2.7603,0,0,0,0,0,0,-2.7472,-2.7476,-2.749,-2.7486,-2.7488,-2.7521,-2.7486,-2.7483,-2.7489,-2.7485,-2.7482,-2.748,-2.7468,-2.7493,-2.7496,-2.7517,-2.7474,-2.7555,-2.7558,-2.7561,-2.7599,-2.7606,-2.7612,0,0,0,0,0,-2.7471,-2.7502,-2.7491,-2.7495,-2.7506,-2.7522,-2.7523,-2.7509,-2.7491,-2.7505,-2.7499,-2.748,-2.7513,-2.7496,-2.7499,-2.752,-2.7554,-2.7557,-2.7561,-2.7597,-2.7605,-2.7612,0,0,0,0,0,0,-2.751,-2.7501,-2.7489,-2.752,-2.7522,-2.7516,-2.7533,-2.7518,-2.7525,-2.7521,-2.7503,-2.7503,-2.7529,-2.7527,-2.7508,-2.7556,-2.753,-2.7534,-2.7556,-2.7564,-2.757,-2.757,-2.7476,0,0,0,0,0,-2.7522,-2.7536,-2.7527,-2.7556,-2.7557,-2.7545,-2.7552,-2.754,-2.7541,-2.7542,-2.7537,-2.7539,-2.7549,-2.7557,-2.7566,-2.7599,-2.7597,-2.7615,-2.7622,-2.7627,-2.763,-2.7647,-2.7654,-2.7574,-2.7574,-2.7574,0,0,-2.7547,-2.7544,-2.7554,-2.7563,-2.7563,-2.7577,-2.7546,-2.7563,-2.7572,-2.7544,-2.7566,-2.7563,-2.7563,-2.7592,-2.7604,-2.7591,-2.7652,-2.7631,-2.7635,-2.7636,-2.7651,-2.7659,-2.7665,-2.7576,-2.7576,-2.7575,0,0,-2.7601,-2.76,-2.7623,-2.7624,-2.7624,-2.7615,-2.7621,-2.7617,-2.7614,-2.7635,-2.7614,-2.7626,-2.7644,-2.7645,-2.7648,-2.77,-2.7684,-2.7704,-2.7736,-2.7752,-2.7759,-2.7764,-2.7782,-2.7789,-2.7708,-2.7708,-2.7708,0,-2.7632,-2.7652,-2.7637,-2.7654,-2.7658,-2.7633,-2.7656,-2.7657,-2.766,-2.7664,-2.7649,-2.7671,-2.767,-2.7697,-2.771,-2.7714,-2.7719,-2.7704,-2.7759,-2.7764,-2.7769,-2.7786,-2.7793,-2.771,-2.771,-2.771,-2.771,0,-2.7691,-2.7705,-2.7723,-2.7727,-2.7733,-2.7753,-2.774,-2.7748,-2.7736,-2.7729,-2.7751,-2.7748,-2.7756,-2.7762,-2.7751,-2.7788,-2.7779,-2.7762,-2.7736,-2.778,-2.7795,-2.7801,-2.7714,-2.7713,-2.7712,-2.7712,0,0,-2.7769,-2.7762,-2.7769,-2.777,-2.7768,-2.7779,-2.7797,-2.7804,-2.7811,-2.7815,-2.7829,-2.7845,-2.7829,-2.7832,-2.782,-2.7835,-2.7875,-2.7816,-2.7815,-2.7826,-2.7915,-2.7927,-2.7935,-2.7864,-2.7865,-2.7866,-2.7914,0,-2.7819,-2.785,-2.7836,-2.7869,-2.7881,-2.7857,-2.7873,-2.7873,-2.7867,-2.7877,-2.787,-2.7881,-2.7859,-2.7861,-2.7874,-2.7868,-2.7893,-2.7864,-2.7877,-2.7878,-2.7877,-2.7943,-2.7956,-2.8002,-2.792,-2.7921,-2.7922,0,-2.7883,-2.7888,-2.7922,-2.7916,-2.7921,-2.7935,-2.794,-2.795,-2.795,-2.7944,-2.7947,-2.7932,-2.7949,-2.7924,-2.7947,-2.7927,-2.7932,-2.7929,-2.7931,-2.7931,-2.7902,-2.7944,-2.8016,-2.8023,-2.7932,-2.7931,-2.793,0,-2.7935,-2.795,-2.7972,-2.7974,-2.7968,-2.7979,-2.7977,-2.7975,-2.798,-2.7985,-2.7987,-2.7994,-2.7997,-2.8003,-2.7989,-2.7972,-2.8014,-2.7987,-2.8009,-2.801,-2.8019,-2.8018,-2.8091,-2.8023,-2.8023,-2.8023,-2.8023,0,-2.7993,-2.8014,-2.7995,-2.8009,-2.8031,-2.8015,-2.8038,-2.8033,-2.8032,-2.8043,-2.8023,-2.8035,-2.8017,-2.8027,-2.8017,-2.8036,-2.8038,-2.8034,-2.8031,-2.8035,-2.8036,-2.8037,-2.8034,-2.8025,-2.8024,-2.8024,-2.8024,0,-2.8055,-2.8043,-2.8065,-2.8058,-2.8056,-2.8073,-2.8067,-2.8079,-2.8071,-2.8086,-2.8089,-2.8077,-2.8087,-2.8075,-2.8084,-2.8077,-2.8104,-2.8096,-2.8104,-2.8101,-2.8124,-2.8121,-2.82,-2.8209,-2.8136,-2.8137,-2.8137,0,-2.8092,-2.8107,-2.8102,-2.8108,-2.8107,-2.8118,-2.8122,-2.8106,-2.8112,-2.8112,-2.8124,-2.8132,-2.8138,-2.8155,-2.8147,-2.8154,-2.8146,-2.8173,-2.8147,-2.815,-2.8145,-2.8144,-2.8145,-2.8178,-2.8179,-2.818,-2.818,0,-2.8159,-2.8152,-2.8159,-2.8165,-2.8171,-2.8174,-2.8176,-2.8182,-2.8166,-2.8173,-2.8183,-2.8187,-2.8196,-2.8204,-2.8209,-2.8207,-2.8191,-2.8189,-2.8194,-2.8198,-2.8201,-2.8199,-2.8117,-2.8187,-2.8186,-2.8186,-2.8185,-2.8185,-2.8209,-2.8221,-2.8218,-2.8227,-2.8227,-2.8229,-2.8239,-2.8232,-2.824,-2.8246,-2.8236,-2.8248,-2.8247,-2.8251,-2.8251,-2.826,-2.8248,-2.8256,-2.8258,-2.826,-2.8263,-2.8201,-2.8261,-2.826,-2.826,-2.826,-2.826,0,-2.8273,-2.827,-2.8279,-2.8282,-2.8288,-2.8272,-2.8274,-2.828,-2.8291,-2.8291,-2.8297,-2.8307,-2.8315,-2.8308,-2.8314,-2.8323,-2.8315,-2.8325,-2.8323,-2.8323,-2.8273,-2.8268,-2.833,-2.833,-2.833,-2.833,-2.833,-2.833,-2.8308,-2.8327,-2.832,-2.8339,-2.8336,-2.8347,-2.8349,-2.8351,-2.835,-2.8363,-2.8369,-2.8364,-2.8361,-2.8367,-2.8373,-2.837,-2.8373,-2.8385,-2.838,-2.8334,-2.8327,-2.832,-2.8315,-2.8386,-2.8386,-2.8429,-2.8429,-2.8429]}]]